Location: Unspecified
(41.9031°N, 12.4386°E)
Time: 05:39:16
(UTC+02:00)

ISS - Pass Details

Date: 04 April 2020
Orbit: 417 x 423 km, 51.6° (Epoch: 29 March)

Event Time Altitude Azimuth Distance (km) Brightness Sun altitude
Rises 21:50:15 0° 292° (WNW) 2,359 1.4 -23.4°
Reaches altitude 10° 21:52:46 10° 273° (W) 1,492 -0.2 -23.8°
Enters shadow 21:54:39 18° 240° (WSW) 1,104 -1.4 -24.1°
